This demonstration page uses our WeatherBlox Daily Observations layout. Learn more.

Left ArrowRight Arrow

Hourly Observations for October 19, 2021

Temp ( °F °C ) Dew Point ( °F °C ) Humidity (%) Winds ( mph kmh ) Pressure ( in mb ) Visibility ( mi km ) Precip ( " mm )
12:53 am 00:53 Clear 48 8.9 46 7.8 93 93 Calm 30.18 1022 10 16 0.00 0.00
1:53 am 01:53 Clear 47 8.3 45 7.2 93 93 Calm 30.18 1022 10 16 0.00 0.00
2:53 am 02:53 Clear 46 7.8 44 6.7 93 93 Calm 30.18 1022 10 16 0.00 0.00
3:53 am 03:53 Clear 45 7.2 44 6.7 97 97 Calm 30.18 1022 10 16 0.00 0.00
4:53 am 04:53 Clear 44 6.7 43 6.1 96 96 Calm 30.17 1022 10 16 0.00 0.00
5:53 am 05:53 Clear 44 6.7 42 5.6 93 93 Calm 30.19 1022 10 16 0.00 0.00
6:53 am 06:53 Clear 43 6.1 41 5 93 93 Calm 30.21 1023 10 16 0.00 0.00
7:53 am 07:53 Sunny with Light Rain 43 6.1 41 5 93 93 Calm 30.23 1024 10 16 0.00 0.00
8:53 am 08:53 Sunny 48 8.9 46 7.8 93 93 Calm 30.25 1024 10 16 0.00 0.00
9:53 am 09:53 Sunny 54 12.2 49 9.4 83 83 Calm 30.26 1025 10 16 0.00 0.00
10:53 am 10:53 Sunny 61 16.1 50 10 67 67 NE 3 6 30.27 1025 10 16 0.00 0.00
11:53 am 11:53 Sunny 67 19.4 49 9.4 53 53 VRB 5 7 30.26 1025 10 16 0.00 0.00
12:53 pm 12:53 Sunny 70 21.1 47 8.3 44 44 Calm 30.24 1024 10 16 0.00 0.00
1:53 pm 13:53 Sunny 73 22.8 44 6.7 35 35 Calm 30.22 1023 10 16 0.00 0.00
2:53 pm 14:53 Sunny 74 23.3 45 7.2 36 36 undefined N/A 30.19 1023 10 16 0.00 0.00
3:53 pm 15:53 Sunny 75 23.9 42 5.6 31 31 SE 3 6 30.19 1022 10 16 0.00 0.00
4:53 pm 16:53 Sunny 74 23.3 43 6.1 33 33 Calm 30.18 1022 10 16 0.00 0.00
5:53 pm 17:53 Sunny 73 22.8 44 6.7 35 35 S 5 7 30.18 1022 10 16 0.00 0.00
6:53 pm 18:53 Sunny 66 18.9 50 10 56 56 Calm 30.18 1022 10 16 0.00 0.00
7:53 pm 19:53 Clear 59 15 52 11.1 78 78 Calm 30.21 1023 10 16 0.00 0.00
8:53 pm 20:53 Clear 56 13.3 51 10.6 84 84 Calm 30.22 1023 10 16 0.00 0.00
9:53 pm 21:53 Clear 55 12.8 51 10.6 87 87 Calm 30.22 1023 10 16 0.00 0.00
10:53 pm 22:53 Clear 52 11.1 49 9.4 89 89 Calm 30.23 1024 10 16 0.00 0.00
11:53 pm 23:53 Clear 52 11.1 49 9.4 89 89 Calm 30.23 1024 10 16 0.00 0.00

Powered by AerisWeather